Zurück zum Katalog

STARLINK-2578

AktivKommunikationVLEO
NORAD 48362·PAYLOAD·🇺🇸 United States

Gestartet May 4, 2021 von Cape Canaveral Space Force Station

Loading…

Nächste Überflüge (nächste 24 Stunden)

TLE

AktuellSource: CelesTrak SupGP

Epoche: Sep 14, 2026, 20:25 UTC

1 48362C 21038K   26257.85118056  .00017108  00000+0  55012-3 0  2572
2 48362  53.1605 197.8181 0001554  96.9157 350.4050 15.31694871    15

Verfolge STARLINK-2578 in Echtzeit mit AllMySat

Download on the App Store